Garrison, ND

3:34 PM CDT on April 25, 2018 (GMT -0500)
Garrison

Weather History for KN60 - September, 2013

Change the Weather History Date:

Saturday, September 14, 2013

  Actual Average Record
Temperature  
Mean Temperature 66 °F -  
Max Temperature 73 °F - 79 °F (2006)
Min Temperature 58 °F - 27 °F (2007)
Degree Days  
Heating Degree Days 0    
Month to date heating degree days 9  
Cooling Degree Days 1    
Month to date cooling degree days 55  
Year to date cooling degree days 367  
Growing Degree Days 11 (Base 50)    
Moisture  
Dew Point 51 °F    
Average Humidity 61    
Maximum Humidity 73    
Minimum Humidity 48    
Precipitation  
Precipitation 0.00 in - 0.43 in (2001)
Month to date precipitation 2.58  
Year to date precipitation 24.89  
Sea Level Pressure  
Sea Level Pressure 29.86 in    
Wind  
Wind Speed 7 mph (ESE)    
Max Wind Speed 21 mph    
Max Gust Speed 30 mph    
T = Trace of Precipitation, MM = Missing Value Source: NWS Daily Summary

Daily Weather History Graph

Daily Weather History Graph

Search for Another Location

Airport or City:

Astronomy

Sep. 14, 2013 Rise Set
Actual Time 7:22 AM CDT 7:59 PM CDT
Civil Twilight 6:50 AM CDT 8:30 PM CDT
Nautical Twilight 6:14 AM CDT 9:07 PM CDT
Astronomical Twilight 5:35 AM CDT 9:45 PM CDT
Moon 4:58 PM CDT (9/14) 1:38 AM CDT (9/14)
Length of Visible Light 13h 39m
Length of Day
12h 37m
Waxing Gibbous, 72% of the Moon is Illuminated
Sep 14
Waxing Gibbous
Sep 19
Full
Sep 26
Last Quarter
Oct 4
New
Oct 11
First Quarter

Hourly Weather History & Observations

Time (CDT) Temp. Dew Point Humidity Pressure Visibility Wind Dir Wind Speed Gust Speed Precip Events Conditions
12:52 AM 64.0 °F 44.1 °F 48% 29.83 in - South 5.8 mph - N/A   Unknown
1:52 AM 63.0 °F 45.0 °F 52% 29.82 in - South 4.6 mph - N/A   Unknown
2:52 AM 62.1 °F 45.0 °F 53% 29.80 in - South 3.5 mph - N/A   Unknown
3:52 AM 61.0 °F 46.9 °F 60% 29.79 in - SSE 3.5 mph - N/A   Unknown
4:52 AM 61.0 °F 46.0 °F 58% 29.78 in - South 6.9 mph - N/A   Unknown
5:52 AM 60.1 °F 46.9 °F 62% 29.77 in - SSE 3.5 mph - N/A   Unknown
6:52 AM 60.1 °F 48.9 °F 67% 29.77 in - South 5.8 mph - N/A   Unknown
7:52 AM 62.1 °F 48.9 °F 62% 29.78 in - South 6.9 mph - N/A   Unknown
8:52 AM 62.1 °F 48.9 °F 62% 29.78 in - South 8.1 mph - N/A   Unknown
9:52 AM 62.1 °F 51.1 °F 67% 29.79 in - South 5.8 mph - N/A   Unknown
10:52 AM 63.0 °F 51.1 °F 65% 29.79 in - South 4.6 mph - N/A   Unknown
11:52 AM 64.9 °F 51.1 °F 61% 29.79 in - NW 3.5 mph - N/A   Unknown
12:52 PM 66.9 °F 54.0 °F 63% 29.79 in - NNW 4.6 mph - N/A   Unknown
1:52 PM 69.1 °F 59.0 °F 70% 29.80 in - Calm Calm - N/A   Unknown
2:52 PM 72.0 °F 60.1 °F 66% 29.81 in - NE 6.9 mph - N/A   Unknown
3:52 PM 72.0 °F 57.9 °F 61% 29.83 in - ENE 10.4 mph 20.7 mph N/A   Unknown
4:52 PM 71.1 °F 59.0 °F 66% 29.86 in - ENE 12.7 mph 28.8 mph N/A   Unknown
5:52 PM 66.0 °F 57.0 °F 73% 29.92 in - NNE 15.0 mph 26.5 mph N/A   Unknown
6:52 PM 63.0 °F 50.0 °F 63% 29.96 in - NE 13.8 mph 24.2 mph N/A   Unknown
7:52 PM 61.0 °F 50.0 °F 67% 29.98 in - NE 9.2 mph - N/A   Unknown
8:52 PM 59.0 °F 50.0 °F 72% 30.01 in - NE 5.8 mph - N/A   Unknown
9:52 PM 53.1 °F 50.0 °F 89% 30.04 in - North 3.5 mph - N/A   Unknown
10:52 PM 50.0 °F 48.0 °F 93% 30.07 in - North 4.6 mph - N/A   Unknown
11:52 PM 55.0 °F 50.0 °F 83% 30.10 in - NE 9.2 mph - N/A   Unknown